Time,TemperatureF,DewpointF,PressureIn,WindDirection,WindDirectionDegrees,WindSpeedMPH,WindSpeedGustMPH,Humidity,HourlyPrecipIn,Conditions,Clouds,dailyrainin,SolarRadiationWatts/m^2,SoftwareType,DateUTC
2013-10-20 00:02:00,41.0,38.0,-100.00,East,90,0.0,0.0,90,0.00,,,0.00,0.000000,,2013-10-20 05:02:00,
2013-10-20 00:43:00,41.0,38.0,-100.00,East,90,0.0,0.0,90,0.00,,,0.00,0.000000,,2013-10-20 05:43:00,
2013-10-20 00:52:00,41.0,38.0,-100.00,East,90,0.0,0.0,90,0.00,,,0.00,0.000000,,2013-10-20 05:52:00,
2013-10-20 01:02:00,42.0,39.0,-100.00,West,262,0.0,0.0,90,0.00,,,0.00,0.000000,,2013-10-20 06:02:00,
2013-10-20 01:42:00,42.0,39.0,-100.00,West,262,0.0,0.0,90,0.00,,,0.00,0.000000,,2013-10-20 06:42:00,
2013-10-20 01:52:00,42.0,39.0,-100.00,West,262,0.0,0.0,90,0.00,,,0.00,0.000000,,2013-10-20 06:52:00,
2013-10-20 02:02:00,42.0,40.0,-100.00,WNW,302,1.0,3.0,91,0.00,,,0.00,0.000000,,2013-10-20 07:02:00,
2013-10-20 02:22:00,42.0,40.0,-100.00,WNW,302,1.0,3.0,91,0.00,,,0.00,0.000000,,2013-10-20 07:22:00,
2013-10-20 02:32:00,42.0,40.0,-100.00,WNW,302,1.0,3.0,91,0.00,,,0.00,0.000000,,2013-10-20 07:32:00,
2013-10-20 02:42:00,42.0,40.0,-100.00,WNW,302,1.0,3.0,91,0.00,,,0.00,0.000000,,2013-10-20 07:42:00,
2013-10-20 02:52:00,42.0,40.0,-100.00,WNW,302,1.0,3.0,91,0.00,,,0.00,0.000000,,2013-10-20 07:52:00,
2013-10-20 03:02:00,41.0,39.0,-100.00,WSW,252,0.0,4.0,91,0.00,,,0.00,0.000000,,2013-10-20 08:02:00,
2013-10-20 03:22:00,41.0,39.0,-100.00,WSW,252,0.0,4.0,91,0.00,,,0.00,0.000000,,2013-10-20 08:22:00,
2013-10-20 03:33:00,41.0,39.0,-100.00,WSW,252,0.0,4.0,91,0.00,,,0.00,0.000000,,2013-10-20 08:33:00,
2013-10-20 03:42:00,41.0,39.0,-100.00,WSW,252,0.0,4.0,91,0.00,,,0.00,0.000000,,2013-10-20 08:42:00,
2013-10-20 03:52:00,41.0,39.0,-100.00,WSW,252,0.0,4.0,91,0.00,,,0.00,0.000000,,2013-10-20 08:52:00,
2013-10-20 04:02:00,40.0,38.0,-100.00,WNW,291,1.0,2.0,91,0.00,,,0.00,0.000000,,2013-10-20 09:02:00,
2013-10-20 04:43:00,40.0,38.0,-100.00,WNW,291,1.0,2.0,91,0.00,,,0.00,0.000000,,2013-10-20 09:43:00,
2013-10-20 04:53:00,40.0,38.0,-100.00,WNW,291,1.0,2.0,91,0.00,,,0.00,0.000000,,2013-10-20 09:53:00,
2013-10-20 05:02:00,38.0,35.0,-100.00,SE,128,1.0,2.0,90,0.00,,,0.00,0.000000,,2013-10-20 10:02:00,
2013-10-20 05:43:00,38.0,35.0,-100.00,SE,128,1.0,2.0,90,0.00,,,0.00,0.000000,,2013-10-20 10:43:00,
2013-10-20 05:53:00,38.0,35.0,-100.00,SE,128,1.0,2.0,90,0.00,,,0.00,0.000000,,2013-10-20 10:53:00,
2013-10-20 06:02:00,38.0,36.0,-100.00,ESE,108,2.0,5.0,91,0.00,,,0.00,0.000000,,2013-10-20 11:02:00,
2013-10-20 06:43:00,38.0,36.0,-100.00,ESE,108,2.0,5.0,91,0.00,,,0.00,0.000000,,2013-10-20 11:43:00,
2013-10-20 06:52:00,38.0,36.0,-100.00,ESE,108,2.0,5.0,91,0.00,,,0.00,0.000000,,2013-10-20 11:52:00,
2013-10-20 07:42:00,37.0,35.0,-100.00,ENE,59,0.0,4.0,91,0.00,,,0.00,0.000000,,2013-10-20 12:42:00,
2013-10-20 07:52:00,37.0,35.0,-100.00,ENE,59,0.0,4.0,91,0.00,,,0.00,0.000000,,2013-10-20 12:52:00,
2013-10-20 08:01:00,37.0,35.0,-100.00,ENE,59,0.0,4.0,91,0.00,,,0.00,0.000000,,2013-10-20 13:01:00,
2013-10-20 08:02:00,37.0,35.0,-100.00,SW,229,0.0,1.0,91,0.00,,,0.00,8.000000,,2013-10-20 13:02:00,
2013-10-20 08:42:00,37.0,35.0,-100.00,SW,229,0.0,1.0,91,0.00,,,0.00,8.000000,,2013-10-20 13:42:00,
2013-10-20 08:52:00,37.0,35.0,-100.00,SW,229,0.0,1.0,91,0.00,,,0.00,8.000000,,2013-10-20 13:52:00,
2013-10-20 09:02:00,46.0,43.0,-100.00,East,95,2.0,3.0,90,0.00,,,0.00,174.000000,,2013-10-20 14:02:00,
2013-10-20 09:42:00,46.0,43.0,-100.00,East,95,2.0,3.0,90,0.00,,,0.00,174.000000,,2013-10-20 14:42:00,
2013-10-20 09:52:00,46.0,43.0,-100.00,East,95,2.0,3.0,90,0.00,,,0.00,174.000000,,2013-10-20 14:52:00,
2013-10-20 10:02:00,53.0,44.0,-100.00,ENE,75,3.0,5.0,72,0.00,,,0.00,400.000000,,2013-10-20 15:02:00,
2013-10-20 10:44:00,53.0,44.0,-100.00,ENE,75,3.0,5.0,72,0.00,,,0.00,400.000000,,2013-10-20 15:44:00,
2013-10-20 10:54:00,53.0,44.0,-100.00,ENE,75,3.0,5.0,72,0.00,,,0.00,400.000000,,2013-10-20 15:54:00,
2013-10-20 11:02:00,59.0,41.0,-100.00,SE,135,3.0,6.0,52,0.00,,,0.00,592.000000,,2013-10-20 16:02:00,
2013-10-20 11:43:00,59.0,41.0,-100.00,SE,135,3.0,6.0,52,0.00,,,0.00,592.000000,,2013-10-20 16:43:00,
2013-10-20 11:54:00,59.0,41.0,-100.00,SE,135,3.0,6.0,52,0.00,,,0.00,592.000000,,2013-10-20 16:54:00,
2013-10-20 12:02:00,63.0,44.0,-100.00,ESE,123,4.0,9.0,50,0.00,,,0.00,736.000000,,2013-10-20 17:02:00,
2013-10-20 12:42:00,63.0,44.0,-100.00,ESE,123,4.0,9.0,50,0.00,,,0.00,736.000000,,2013-10-20 17:42:00,
2013-10-20 12:52:00,63.0,44.0,-100.00,ESE,123,4.0,9.0,50,0.00,,,0.00,736.000000,,2013-10-20 17:52:00,
2013-10-20 13:02:00,67.0,42.0,-100.00,SE,140,5.0,11.0,40,0.00,,,0.00,812.000000,,2013-10-20 18:02:00,
2013-10-20 13:42:00,67.0,42.0,-100.00,SE,140,5.0,11.0,40,0.00,,,0.00,812.000000,,2013-10-20 18:42:00,
2013-10-20 13:52:00,67.0,42.0,-100.00,SE,140,5.0,11.0,40,0.00,,,0.00,812.000000,,2013-10-20 18:52:00,
2013-10-20 14:02:00,68.0,42.0,-100.00,SSE,156,5.0,12.0,39,0.00,,,0.00,811.000000,,2013-10-20 19:02:00,
2013-10-20 14:42:00,68.0,42.0,-100.00,SSE,156,5.0,12.0,39,0.00,,,0.00,811.000000,,2013-10-20 19:42:00,
2013-10-20 14:52:00,68.0,42.0,-100.00,SSE,156,5.0,12.0,39,0.00,,,0.00,811.000000,,2013-10-20 19:52:00,
2013-10-20 15:02:00,69.0,43.0,-100.00,SSE,165,5.0,11.0,39,0.00,,,0.00,735.000000,,2013-10-20 20:02:00,
2013-10-20 15:43:00,69.0,43.0,-100.00,SSE,165,5.0,11.0,39,0.00,,,0.00,735.000000,,2013-10-20 20:43:00,
2013-10-20 15:52:00,69.0,43.0,-100.00,SSE,165,5.0,11.0,39,0.00,,,0.00,735.000000,,2013-10-20 20:52:00,
2013-10-20 16:02:00,69.0,44.0,-100.00,SE,146,5.0,10.0,40,0.00,,,0.00,594.000000,,2013-10-20 21:02:00,
2013-10-20 16:44:00,69.0,44.0,-100.00,SE,146,5.0,10.0,40,0.00,,,0.00,594.000000,,2013-10-20 21:44:00,
2013-10-20 16:54:00,69.0,44.0,-100.00,SE,146,5.0,10.0,40,0.00,,,0.00,594.000000,,2013-10-20 21:54:00,
2013-10-20 17:02:00,68.0,45.0,-100.00,SE,145,4.0,11.0,44,0.00,,,0.00,401.000000,,2013-10-20 22:02:00,
2013-10-20 17:43:00,68.0,45.0,-100.00,SE,145,4.0,11.0,44,0.00,,,0.00,401.000000,,2013-10-20 22:43:00,
2013-10-20 17:53:00,68.0,45.0,-100.00,SE,145,4.0,11.0,44,0.00,,,0.00,401.000000,,2013-10-20 22:53:00,
2013-10-20 18:02:00,65.0,47.0,-100.00,SE,139,2.0,9.0,52,0.00,,,0.00,188.000000,,2013-10-20 23:02:00,
2013-10-20 18:43:00,65.0,47.0,-100.00,SE,139,2.0,9.0,52,0.00,,,0.00,188.000000,,2013-10-20 23:43:00,
2013-10-20 18:52:00,65.0,47.0,-100.00,SE,139,2.0,9.0,52,0.00,,,0.00,188.000000,,2013-10-20 23:52:00,
2013-10-20 19:02:00,57.0,47.0,-100.00,East,97,1.0,6.0,69,0.00,,,0.00,12.000000,,2013-10-21 00:02:00,
2013-10-20 19:22:00,57.0,47.0,-100.00,East,97,1.0,6.0,69,0.00,,,0.00,12.000000,,2013-10-21 00:22:00,
2013-10-20 19:32:00,57.0,47.0,-100.00,East,97,1.0,6.0,69,0.00,,,0.00,12.000000,,2013-10-21 00:32:00,
2013-10-20 19:43:00,57.0,47.0,-100.00,East,97,1.0,6.0,69,0.00,,,0.00,12.000000,,2013-10-21 00:43:00,
2013-10-20 19:52:00,57.0,47.0,-100.00,East,97,1.0,6.0,69,0.00,,,0.00,12.000000,,2013-10-21 00:52:00,
2013-10-20 20:02:00,54.0,49.0,-100.00,East,88,1.0,3.0,82,0.00,,,0.00,0.000000,,2013-10-21 01:02:00,
2013-10-20 20:42:00,54.0,49.0,-100.00,East,88,1.0,3.0,82,0.00,,,0.00,0.000000,,2013-10-21 01:42:00,
2013-10-20 20:52:00,54.0,49.0,-100.00,East,88,1.0,3.0,82,0.00,,,0.00,0.000000,,2013-10-21 01:52:00,
2013-10-20 21:02:00,52.0,47.0,-100.00,East,97,0.0,3.0,83,0.00,,,0.00,0.000000,,2013-10-21 02:02:00,
2013-10-20 21:22:00,52.0,47.0,-100.00,East,97,0.0,3.0,83,0.00,,,0.00,0.000000,,2013-10-21 02:22:00,
2013-10-20 21:32:00,52.0,47.0,-100.00,East,97,0.0,3.0,83,0.00,,,0.00,0.000000,,2013-10-21 02:32:00,
2013-10-20 21:42:00,52.0,47.0,-100.00,East,97,0.0,3.0,83,0.00,,,0.00,0.000000,,2013-10-21 02:42:00,
2013-10-20 21:52:00,52.0,47.0,-100.00,East,97,0.0,3.0,83,0.00,,,0.00,0.000000,,2013-10-21 02:52:00,
2013-10-20 22:02:00,52.0,47.0,-100.00,ENE,74,1.0,3.0,84,0.00,,,0.00,0.000000,,2013-10-21 03:02:00,
2013-10-20 22:45:00,52.0,47.0,-100.00,ENE,74,1.0,3.0,84,0.00,,,0.00,0.000000,,2013-10-21 03:45:00,
2013-10-20 22:55:00,52.0,47.0,-100.00,ENE,74,1.0,3.0,84,0.00,,,0.00,0.000000,,2013-10-21 03:55:00,
2013-10-20 23:02:00,52.0,47.0,-100.00,East,84,1.0,4.0,83,0.00,,,0.00,0.000000,,2013-10-21 04:02:00,
2013-10-20 23:44:00,52.0,47.0,-100.00,East,84,1.0,4.0,83,0.00,,,0.00,0.000000,,2013-10-21 04:44:00,
2013-10-20 23:53:00,52.0,47.0,-100.00,East,84,1.0,4.0,83,0.00,,,0.00,0.000000,,2013-10-21 04:53:00,